Regional Weather Roundup
Issued by NWS Green Bay, WI

Home | Current Version | Previous Version | Graphics & Text | Print | Product List | Glossary Off
Versions: 1 2 3 4 5 6 7 8 9 10 11 12 13 14 15 16 17 18 19 20 21 22 23 24 25 26 27 28 29 30 31 32 33 34 35 36 37 38 39 40 41 42 43 44 45 46 47 48 49 50

000
ASUS43 KGRB 041811
RWRGRB

NORTH-CENTRAL AND NORTHEAST WISCONSIN REGIONAL WEATHER ROUNDUP
NATIONAL WEATHER SERVICE GREEN BAY WI
100 PM CDT FRI SEP 04 2015

WIZ005-009-010>012-018-019-041900-
NORTH CENTRAL WISCONSIN

CITY           SKY/WX    TMP DP  RH WIND       PRES   REMARKS
IRONWOOD       SUNNY     81  64  57 S9        30.01F
MANITOWISH WTR SUNNY     78  65  62 SE5       30.07F
ARBOR VITAE    SUNNY     80  64  58 SE9       30.07S
EAGLE RIVER    SUNNY     80  60  49 E8        30.08S
LAND O LAKES   SUNNY     81  60  49 SE9       30.10S
RHINELANDER    SUNNY     80  63  55 SE8       30.08S
PHILLIPS       SUNNY     79  65  63 SE9       30.05S
ANTIGO         SUNNY     78  65  63 E6        30.07S
TOMAHAWK       MOSUNNY   79  65  62 SE5       30.07S
MERRILL        PTSUNNY   79  67  66 E6        30.06F
$$

WIZ013-073-041900-
NORTHEAST WISCONSIN

CITY           SKY/WX    TMP DP  RH WIND       PRES   REMARKS
IRON MOUNTAIN  SUNNY     79  64  60 SE6       30.07R
MARINETTE      CLOUDY    72  63  73 E8        30.05S
OCONTO         CLOUDY    74  68  81 E7        30.05R
$$

WIZ017-030-035>037-045-041900-
CENTRAL WISCONSIN

CITY           SKY/WX    TMP DP  RH WIND       PRES   REMARKS
MEDFORD        SUNNY     75  67  76 SE7       30.06S
WAUSAU         SUNNY     76  66  71 VRB5      30.04F
MOSINEE        PTSUNNY   75  68  78 VRB5      30.07S
MARSHFIELD     PTSUNNY   73  64  73 E7        30.06F
WISC RAPIDS    MOSUNNY   74  64  71 E7        30.06F
STEVENS POINT  CLOUDY    69  64  84 E7        30.07S
WAUPACA        CLOUDY    73  67  84 CALM      30.06S
SHAWANO        NOT AVBL
CLINTONVILLE   PTSUNNY   75  66  73 CALM      30.04F
WAUTOMA        MOSUNNY   75  67  76 E6        30.05F
$$

WIZ038-039-048-051-041900-
FOX VALLEY

CITY           SKY/WX    TMP DP  RH WIND       PRES   REMARKS
NWS GREEN BAY  CLOUDY    76  66  71 VRB3      30.04F
APPLETON       CLOUDY    72  64  78 VRB3      30.04S
OSHKOSH        CLOUDY    71  65  81 E5        30.05S
FOND DU LAC    CLOUDY    73  66  78 VRB5      30.05S
$$

WIZ022-050-052-041900-
EAST CENTRAL WISCONSIN

CITY           SKY/WX    TMP DP  RH WIND       PRES   REMARKS
EPHRAIM        CLOUDY    74  66  77 NE5       30.05S
STURGEON BAY   PTSUNNY   73  64  73 NE3       30.07S
MANITOWOC      CLOUDY    74  67  78 MISG      30.05S
SHEBOYGAN      CLOUDY    71  67  87 CALM      30.05S
$$

LMZ563-521-522-541>543-041900-
LAKESHORE

STATION/POSITION TIME  TEMP    WIND        PRES    VSBY  WAVE
                       AIR SEA DIR/SP/G                  HT/PER
                 (UTC) (F)     (DEG/KT/KT) (MB)    (MI)  (FT/S)
SHEBOYGAN LKSHOR 1800   66     350/  7/  7 1017.5F
KEWAUNEE LKSHORE 1700   66      30/  4/  6 1016.4S
ALGOMA MARINA    1714           70/ 11/ 11   N/A
NORTHPORT PIER   1700   75      70/  5/  6 1017.6R
N MID LAKE BUOY  1750   68 67  350/  8/  8 1017.4R         2/ 4
S GREEN BAY BUOY 1800   68 67   40/  6/  8 1018.8S
SISTER BAY LKSHO 1741   79     120/ 10/ 12   N/A
CHAMBERS ISLAND  1700   69     350/  8/  9 1017.6S
MENOMINEE LKSHOR 1700   67      10/  9/ 10 1016.5R
$$


USA.gov is the U.S. government's official web portal to all federal, state and local government web resources and services.